Regional Weather Roundup
Issued by NWS

Home | Current Version | Previous Version | Text Only | Print | Product List | Glossary Off
Versions: 1 2 3 4 5 6 7 8 9 10 11 12 13 14 15 16 17 18 19 20 21 22 23 24 25 26 27 28 29 30 31 32 33 34 35 36 37 38 39 40 41 42 43 44 45 46 47 48 49 50

000
ASUS43 KLOT 050400
RWRIL

ILLINOIS REGIONAL WEATHER ROUNDUP
NATIONAL WEATHER SERVICE CHICAGO/ROMEOVILLE IL
1100 PM CDT TUE AUG 04 2015

NOTE: "FAIR" INDICATES FEW OR NO CLOUDS BELOW 12,000 FEET WITH NO
SIGNIFICANT WEATHER AND/OR OBSTRUCTIONS TO VISIBILITY.

* THESE STATIONS ARE NOT UNDER NWS QUALITY CONTROL. THEY ALSO MAY NOT
  REPORT WEATHER SUCH AS PRECIPITATION OR FOG.

ILZ001-002-007-009-015-016-024-050500-
NORTHWEST ILLINOIS

CITY           SKY/WX    TMP DP  RH WIND       PRES   REMARKS
MOLINE         PTCLDY    67  63  87 CALM      30.04R
STERLING*      PTCLDY    64  59  82 CALM      30.02R
$$

ILZ003-004-008-010-011-017-018-050500-
NORTH CENTRAL ILLINOIS

CITY           SKY/WX    TMP DP  RH WIND       PRES   REMARKS
ROCKFORD       MOCLDY    65  57  75 CALM      30.06R
$$

ILZ005-006-012>014-019>023-050500-
NORTHEAST ILLINOIS

CITY           SKY/WX    TMP DP  RH WIND       PRES   REMARKS
CHICAGO-OHARE  PTCLDY    68  57  68 SE5       30.03S
CHICAGO-MIDWAY MOCLDY    74  60  61 E5        30.03R
AURORA         PTCLDY    60  56  86 CALM      30.05R
WAUKEGAN       PTCLDY    61  58  90 CALM      30.03R
DUPAGE AIRPORT PTCLDY    65  57  75 CALM      30.03S
WHEELING       PTCLDY    67  58  72 CALM      30.04S
NORTHERLY ISL    N/A     71  58  63 E6          N/A
$$

LMZ740>746-050500-
SOUTHERN LAKE MICHIGAN

STATION/POSITION SKY/WX   TEMP    WIND        PRES    VSBY  WAVE
                          AIR SEA DIR/SP/G                  HT/PER
                          (F)     (DEG/KT/KT) (MB)    (MI)  (FT/S)
HARRISON CRIB              72     110/  8/  9   N/A
BURNHAM HARBOR             71     100/  4/  7   N/A
CALUMET HARBOR             72      50/  6/  8   N/A
BURNS HARBOR               72      90/  6/  7 1017.3R
MICHIGAN CITY              71      80/  6/  7   N/A
MICHIGAN CITY 6N           73 74  110/  6/  8   N/A           1/ 3
ST. JOSEPH                 72 74  170/  4/  6   N/A           1/ 2
$$

ILZ025>027-034>036-040-047-049-050-058-095>099-050500-
WEST-CENTRAL ILLINOIS

CITY           SKY/WX    TMP DP  RH WIND       PRES   REMARKS
QUINCY         CLOUDY    71  64  78 E5        30.03R
MACOMB*        MOCLDY    68  65  92 N3        30.05S
$$

ILZ028>032-037-038-041>044-048-051>054-059>061-050500-
CENTRAL ILLINOIS

CITY           SKY/WX    TMP DP  RH WIND       PRES   REMARKS
DECATUR        CLOUDY    67  64  90 CALM      30.03R
PEORIA         PTCLDY    71  63  75 CALM      30.04R
SPRINGFIELD    CLOUDY    67  64  90 CALM      30.03R
TAYLORVILLE    NOT AVBL
$$

ILZ033-039-045-046-055>057-062-063-050500-
EAST-CENTRAL ILLINOIS

CITY           SKY/WX    TMP DP  RH WIND       PRES   REMARKS
CHAMPAIGN      MOCLDY    67  63  87 N3        30.04R
MATTOON        CLOUDY    69  65  86 N3        30.02R
$$

ILZ079-100>102-050500-
SOUTHWEST ILLINOIS

CITY           SKY/WX    TMP DP  RH WIND       PRES   REMARKS
BELLEVILLE     CLEAR     76  75  99 NE5       29.99R
CAHOKIA*       CLOUDY    78  71  79 NE6       29.99R HX  80
$$

ILZ064>066-069>071-074>076-080>082-084>086-088>090-092>094-050500-
SOUTH-CENTRAL ILLINOIS

CITY           SKY/WX    TMP DP  RH WIND       PRES   REMARKS
CARBONDALE     CLOUDY    74  70  87 CALM      29.99R
MT. VERNON     MOCLDY    70  64  83 CALM      30.01S
SALEM*         MOCLDY    74  69  83 CALM      30.01R
$$

ILZ067-068-072-073-078-083-087-091-050500-
SOUTHEAST ILLINOIS

CITY           SKY/WX    TMP DP  RH WIND       PRES   REMARKS
LAWRENCEVILLE  MOCLDY    73  68  84 CALM      30.01R
HARRISBURG*    CLOUDY    71  71  98 CALM      30.01R
ROBINSON*      MOCLDY    67  66  96 CALM      30.02R
$$

ABBREVIATIONS USED IN REMARKS
   TC - TEMPERATURE IN CELSIUS
  WCI - WIND CHILL INDEX
   HX - HEAT INDEX
  VSB - VISIBILITY
$$



USA.gov is the U.S. government's official web portal to all federal, state and local government web resources and services.